Regional Weather Roundup
Issued by NWS

Home | Current Version | Previous Version | Graphics & Text | Print | Product List | Glossary On
Versions: 1 2 3 4 5 6 7 8 9 10 11 12 13 14 15 16 17 18 19 20 21 22 23 24 25 26 27 28 29 30 31 32 33 34 35 36 37 38 39 40 41 42 43 44 45 46 47 48 49 50
000
ASUS43 KMPX 290410
RWRMN
WEATHER ROUNDUP FOR MINNESOTA
NATIONAL WEATHER SERVICE TWIN CITIES/CHANHASSEN MN
1100 PM CDT FRI AUG 28 2015


NOTE: "FAIR" INDICATES FEW OR NO CLOUDS BELOW 12,000 FEET WITH NO
SIGNIFICANT WEATHER AND/OR OBSTRUCTIONS TO VISIBILITY. N/A MEANS
CURRENT SKY AND/OR WEATHER CONDITIONS ARE NOT AVAILABLE.

MNZ060>063-068>070-290500-
   Twin Cities Metro

CITY           SKY/WX    TMP DP  RH WIND       PRES   REMARKS
TWIN CITIES    PTCLDY    61  55  81 SE5       30.04F
ST PAUL        CLEAR     61  56  83 E3        30.04F
CRYSTAL        CLEAR     62  55  77 SE5       30.02F
BLAINE         CLEAR     61  57  88 SE3       30.04S
LAKEVILLE      CLEAR     54  54 100 CALM      30.04S
EDEN PRAIRIE   CLEAR     61  56  83 E5        30.03S
SOUTH ST PAUL  CLEAR     61  55  82 CALM      30.03F
LAKE ELMO      FAIR      55  54  94 CALM      30.05F
$$
MNZ001>005-007-008-013>017-022>024-027-028-290500-
   Northwest Minnesota

CITY           SKY/WX    TMP DP  RH WIND       PRES   REMARKS
BEMIDJI        PTCLDY    69  64  84 SW8       29.94R
HALLOCK        CLEAR     70  66  88 CALM      29.85S
ROSEAU         CLEAR     70  64  83 SW5       29.88R
WARROAD        CLEAR     70  66  88 SW6       29.88R
THIEF RVR FALL CLEAR    N/A N/A N/A S12       29.89R
CROOKSTON      CLEAR     72  66  83 S12       29.89S
FOSSTON        CLEAR     64  63  94 S12       29.93S
DETROIT LAKES  CLEAR     68  63  83 S13       29.97S
MOORHEAD       CLEAR     70  64  83 S14G21    29.94S
PARK RAPIDS    PTCLDY    67  62  84 S9        29.98R
MAHNOMEN       FAIR      66  63  91 S9        29.94S
$$
MNZ006-009>011-018-025>026-290500-
   North Central Minnesota

CITY           SKY/WX    TMP DP  RH WIND       PRES   REMARKS
BAUDETTE       CLOUDY    70  65  84 SW5       29.89R
FLAG ISLAND    PTCLDY    68  66  94 CALM      29.86S
INTL FALLS     CLOUDY    71  65  81 SW8       29.88S
WASKISH        MOCLDY    70  64  83 S5        29.92R
BIG FORK       PTCLDY    66  63  88 S6        29.96R
LONGVILLE      CLEAR     68  63  83 S9G18     29.97R
GRAND RAPIDS     N/A     66  61  82 S6        29.99R
CRANE LAKE     CLOUDY    66  57  72 SE3G16    29.94F
ORR            MOCLDY    70  61  73 SW6       29.90F
COOK           MOCLDY    70  63  78 SW6       29.94F
WALKER         FAIR      67  62  83 SW8G17    29.95S
$$
MNZ012-019>021-037-290500-
   Northeast Minnesota

CITY           SKY/WX    TMP DP  RH WIND       PRES   REMARKS
DULUTH         PTCLDY    66  60  81 SW15G21   29.99F
ELY            CLOUDY    70  61  73 SW7       29.96R
HIBBING        PTCLDY    68  62  81 VRB3      29.97R
EVELETH        PTCLDY    66  61  82 SW9       29.98R
DULUTH HARBOR  CLEAR     68  63  83 SW14      29.98S
TWO HARBORS    CLEAR     70  63  78 SW9G17    29.96S
SILVER BAY     PTCLDY    68  63  83 SW7       29.95S
GRAND MARAIS     N/A     57  55  93 CALM      29.94R
G MARAIS ARPRT RAIN      66  61  82 W6        29.99R
$$
MNZ029>031-032-039>041-046>048-054>057-064-290500-
   West Central Minnesota

CITY           SKY/WX    TMP DP  RH WIND       PRES   REMARKS
FERGUS FALLS   CLEAR     66  64  94 S10       29.98S
WHEATON        CLEAR     63  61  94 S9        30.00S
MORRIS         CLEAR     63  61  94 S8        30.00S
ALEXANDRIA     CLEAR     64  61  90 S10       30.03S
ELBOW LAKE     FAIR      62  61  96 S7        30.00S
WADENA         CLEAR     64  61  88 S6        29.99S
GLENWOOD       CLEAR     61  59  94 S6        30.03S
APPLETON       CLEAR     63  59  88 S5        30.01S
BENSON         CLEAR     61  57  88 S5        30.02S
ORTONVILLE     CLEAR     63  61  94 S6        30.01R
MADISON        CLEAR     61  57  88 S3        30.02S
WILLMAR        FAIR      59  57  94 CALM      30.04S
$$
MNZ033>034-036-042>043-049>051-058-059-290500-
   Central Minnesota

CITY           SKY/WX    TMP DP  RH WIND       PRES   REMARKS
ST CLOUD       CLEAR     60  57  89 S6        30.03S
SAUK CENTRE    FAIR      59  58  96 S3        30.04R
PAYNESVILLE    CLEAR     62  56  83 SE3       30.04S
AITKIN         CLEAR     66  61  82 S8        29.99R
PINE RIVER     CLEAR     66  61  82 S7        30.02S
BRAINERD       CLEAR     64  61  90 S9        30.01S
STAPLES        CLEAR     63  61  94 S9        30.00S
LONG PRAIRIE   FAIR      59  57  94 S6        30.03S
LITTLE FALLS   CLEAR     61  57  88 S3        30.03R
LITCHFIELD     CLEAR     59  57  94 CALM      30.04S
BUFFALO        CLEAR     60  55  82 CALM      30.04S
MAPLE LAKE     CLEAR     60  57  90 CALM      30.04F
$$
MNZ037-044-045-052-053-290500-
   East Central Minnesota

CITY           SKY/WX    TMP DP  RH WIND       PRES   REMARKS
PRINCETON      CLEAR     63  57  82 S3        30.04S
MORA           CLEAR     61  55  82 S6        30.05S
CAMBRIDGE      CLEAR     63  54  72 CALM      30.03R
RUSH CITY      PTCLDY    60  55  85 S6        30.05S
MOOSE LAKE     CLEAR     64  59  82 S9        30.00S
HINCKLEY       FAIR      63  59  88 S9        30.03F
CLOQUET        CLEAR     66  57  72 S9        30.01R
MCGREGOR       CLEAR     66  61  82 S9        30.01R
$$
MNZ071>073-080-081-089-090-097-098-290500-
   Southwest Minnesota

CITY           SKY/WX    TMP DP  RH WIND       PRES   REMARKS
MONTEVIDEO     CLEAR     61  57  88 SW5       30.04S
GRANITE FALLS  CLEAR     57  55  94 S6        30.04S
CANBY          CLEAR     61  58  91 S5        30.03F
MARSHALL       CLEAR     59  54  82 S5        30.04S
REDWOOD FALLS  CLEAR     59  56  89 SE3       30.03R
OLIVIA         CLEAR     55  52  88 SE5       30.02F
PIPESTONE      CLEAR     57  55  94 CALM      30.04S
WINDOM         MOCLDY    59  55  88 CALM      30.03S
WORTHINGTON    CLOUDY    59  54  82 E6        30.02S
JACKSON        MOCLDY    59  55  88 NE3       30.02F
TRACY          CLEAR     58  56  93 CALM      30.04S
SLAYTON        CLEAR     56  55  99 CALM      30.05R
$$
MNZ065>067-074>077-082>085-091>093-290500-
   South Central Minnesota

CITY           SKY/WX    TMP DP  RH WIND       PRES   REMARKS
MANKATO        CLEAR     59  54  82 E7        30.02S
NEW ULM        CLEAR     61  55  82 NE1       30.03S
ST JAMES       CLEAR     55  55 100 N3        30.03S
FAIRMONT       CLOUDY    59  54  82 E7        30.00S
GLENCOE        CLEAR     58  57  96 CALM      30.03F
FARIBAULT      CLEAR     55  55 100 CALM      30.03S
OWATONNA       CLEAR     55  54  94 NE3       30.02S
WASECA         CLEAR     55  54  94 MISG      30.03S
ALBERT LEA     CLOUDY    59  57  94 E6        30.00S
$$
MNZ078>079-086>088-094>096-290500-
   Southeast Minnesota

CITY           SKY/WX    TMP DP  RH WIND       PRES   REMARKS
ROCHESTER      MOCLDY    57  56  96 E10       30.00F
RED WING       CLEAR     59  55  88 E5        30.03R
STANTON        CLEAR     56  54  91 CALM      30.02S
DODGE CENTER   PTCLDY    55  54  94 E5        30.01F
WINONA         MOCLDY    59  55  88 SE5       30.03S
AUSTIN         MOCLDY    61  57  88 E8        29.98F
PRESTON        CLOUDY    57  55  94 E10       30.02F
$$
ABBREVIATIONS USED IN REMARKS
   TC - TEMPERATURES IN CELSIUS
  WCI - WIND CHILL INDEX
   HX - HEAT INDEX
  VSB - VISIBILITY
$$



USA.gov is the U.S. government's official web portal to all federal, state and local government web resources and services.